^^
Datos históricos de la estación: Murcia-Puente Tocinos
Diario Informe para Junio 1, 2019 Unidades:  Métrico    Inglés   Ambas
Diario Semanal Mensual Anual Configurable
  Máximo: Mínimo: Media:
Temperatura: 26.9 °C 15.7 °C 21.5 °C
Punto de rocio: 11.8 °C 2.8 °C 7.6 °C
Humedad: 68% 22% 44%
Velocidad viento: 19.0km/h 0.0km/h 7.7km/h
Racha viento: 29.6km/h - -
Viento- - ESE
Presión: 1021.8 hPa 1017.8 hPa -
Precipitación: 0.0 mm    
Historical Graphs
 
 
Tabla de datos para Junio 1, 2019
Hora Temperatura Punto de rocio Presión Viento Velocidad viento Racha viento Humedad Intensidad lluvia(por hora) Nubes
00:04 19.3 °C 11.6 °C 1021.8 hPa NNE 2.3 km/h 3.7 km/h 61% 0.0 mm CLR
00:09 19.3 °C 11.6 °C 1021.8 hPa NNE 2.9 km/h 5.6 km/h 61% 0.0 mm CLR
00:14 19.3 °C 11.8 °C 1021.8 hPa NNE 2.9 km/h   62% 0.0 mm CLR
00:19 19.3 °C 11.8 °C 1021.7 hPa Calm   3.9 km/h 62% 0.0 mm CLR
00:24 19.2 °C 11.7 °C 1021.7 hPa Calm   5.6 km/h 62% 0.0 mm CLR
00:29 19.2 °C 11.7 °C 1021.7 hPa NW 3.2 km/h 3.7 km/h 62% 0.0 mm CLR
00:34 19.2 °C 11.7 °C 1021.8 hPa NW 3.2 km/h   62% 0.0 mm CLR
00:39 19.1 °C 11.7 °C 1021.8 hPa Calm     62% 0.0 mm CLR
00:44 19.1 °C 11.7 °C 1021.8 hPa Calm     62% 0.0 mm CLR
00:49 19.1 °C 11.7 °C 1021.8 hPa Calm     62% 0.0 mm CLR
00:54 19.1 °C 11.7 °C 1021.8 hPa Calm     62% 0.0 mm CLR
00:59 19.0 °C 11.6 °C 1021.8 hPa Calm     62% 0.0 mm CLR
01:04 18.9 °C 10.9 °C 1021.8 hPa Calm   3.9 km/h 60% 0.0 mm CLR
01:09 18.8 °C 10.9 °C 1021.8 hPa East 2.3 km/h 5.6 km/h 60% 0.0 mm CLR
01:14 18.7 °C 11.0 °C 1021.8 hPa East 2.3 km/h 5.6 km/h 61% 0.0 mm CLR
01:19 18.6 °C 10.9 °C 1021.7 hPa East 3.2 km/h 3.7 km/h 61% 0.0 mm CLR
01:24 18.5 °C 10.8 °C 1021.7 hPa SE 3.2 km/h 5.6 km/h 61% 0.0 mm CLR
01:29 18.4 °C 10.7 °C 1021.7 hPa SE 2.9 km/h   61% 0.0 mm CLR
01:34 18.4 °C 11.0 °C 1021.5 hPa SE 2.9 km/h   62% 0.0 mm CLR
01:39 18.3 °C 10.9 °C 1021.5 hPa Calm     62% 0.0 mm CLR
01:44 18.3 °C 10.9 °C 1021.5 hPa Calm     62% 0.0 mm CLR
01:49 18.3 °C 10.9 °C 1021.5 hPa Calm     62% 0.0 mm CLR
01:54 18.2 °C 10.8 °C 1021.5 hPa Calm   3.7 km/h 62% 0.0 mm CLR
01:59 18.1 °C 10.9 °C 1021.5 hPa SE 2.3 km/h 4.7 km/h 63% 0.0 mm CLR
02:04 18.1 °C 10.9 °C 1021.5 hPa SE 2.3 km/h 5.6 km/h 63% 0.0 mm CLR
02:09 18.0 °C 10.8 °C 1021.5 hPa SE 2.9 km/h 5.6 km/h 63% 0.0 mm CLR
02:14 17.9 °C 10.8 °C 1021.5 hPa SE 2.9 km/h 3.9 km/h 63% 0.0 mm CLR
02:19 17.8 °C 10.9 °C 1021.4 hPa SE 3.2 km/h 5.8 km/h 64% 0.0 mm CLR
02:24 17.8 °C 10.9 °C 1021.4 hPa SE 3.2 km/h 3.7 km/h 64% 0.0 mm CLR
02:29 17.7 °C 10.8 °C 1021.4 hPa SE 2.9 km/h 3.9 km/h 64% 0.0 mm CLR
02:34 17.7 °C 11.1 °C 1021.2 hPa SE 2.9 km/h 3.7 km/h 65% 0.0 mm CLR
02:39 17.6 °C 10.9 °C 1021.2 hPa Calm     65% 0.0 mm CLR
02:44 17.6 °C 10.9 °C 1021.2 hPa Calm   3.9 km/h 65% 0.0 mm CLR
02:49 17.6 °C 10.9 °C 1020.9 hPa Calm   1.9 km/h 65% 0.0 mm CLR
02:54 17.6 °C 11.2 °C 1020.9 hPa Calm     66% 0.0 mm CLR
02:59 17.5 °C 11.1 °C 1020.9 hPa Calm     66% 0.0 mm CLR
03:04 17.4 °C 11.0 °C 1020.9 hPa Calm   2.3 km/h 66% 0.0 mm CLR
03:09 17.4 °C 11.0 °C 1020.9 hPa Calm     66% 0.0 mm CLR
03:14 17.4 °C 10.7 °C 1020.9 hPa Calm   3.7 km/h 65% 0.0 mm CLR
03:19 17.4 °C 11.0 °C 1020.9 hPa SE 2.3 km/h 3.7 km/h 66% 0.0 mm CLR
03:24 17.3 °C 10.9 °C 1020.9 hPa SE 2.3 km/h   66% 0.0 mm CLR
03:29 17.2 °C 11.0 °C 1020.9 hPa Calm     67% 0.0 mm CLR
03:34 17.1 °C 10.7 °C 1020.8 hPa Calm     66% 0.0 mm CLR
03:39 17.1 °C 10.7 °C 1020.8 hPa Calm   7.4 km/h 66% 0.0 mm CLR
03:44 17.0 °C 10.6 °C 1020.8 hPa Calm   3.7 km/h 66% 0.0 mm CLR
03:49 16.9 °C 10.5 °C 1020.7 hPa SE 2.3 km/h 3.7 km/h 66% 0.0 mm CLR
03:54 16.9 °C 10.7 °C 1020.7 hPa ESE 2.3 km/h 5.6 km/h 67% 0.0 mm CLR
03:59 16.8 °C 10.4 °C 1020.7 hPa ESE 2.9 km/h 7.4 km/h 66% 0.0 mm CLR
04:04 16.7 °C 10.6 °C 1020.8 hPa ESE 2.9 km/h 5.6 km/h 67% 0.0 mm CLR
04:09 16.7 °C 10.3 °C 1020.8 hPa SE 3.2 km/h 7.6 km/h 66% 0.0 mm CLR
04:14 16.6 °C 10.0 °C 1020.8 hPa SE 3.2 km/h 7.4 km/h 65% 0.0 mm CLR
04:19 16.6 °C 10.0 °C 1020.7 hPa SE 5.0 km/h 5.6 km/h 65% 0.0 mm CLR
04:24 16.6 °C 10.0 °C 1020.7 hPa SE 5.0 km/h 3.7 km/h 65% 0.0 mm CLR
04:29 16.6 °C 10.0 °C 1020.7 hPa SE 2.3 km/h   65% 0.0 mm CLR
04:34 16.6 °C 10.2 °C 1020.6 hPa SE 2.3 km/h 3.7 km/h 66% 0.0 mm CLR
04:39 16.4 °C 10.3 °C 1020.6 hPa SE 2.3 km/h   67% 0.0 mm CLR
04:44 16.4 °C 10.3 °C 1020.6 hPa SE 2.3 km/h   67% 0.0 mm CLR
04:49 16.3 °C 10.2 °C 1020.4 hPa Calm     67% 0.0 mm CLR
04:54 16.3 °C 10.4 °C 1020.4 hPa Calm   1.9 km/h 68% 0.0 mm CLR
04:59 16.3 °C 10.2 °C 1020.4 hPa Calm   5.6 km/h 67% 0.0 mm CLR
05:04 16.3 °C 10.2 °C 1020.5 hPa Calm   5.6 km/h 67% 0.0 mm CLR
05:09 16.3 °C 10.2 °C 1020.5 hPa SE 3.2 km/h 5.6 km/h 67% 0.0 mm CLR
05:14 16.3 °C 10.2 °C 1020.5 hPa SE 3.2 km/h 7.4 km/h 67% 0.0 mm CLR
05:19 16.2 °C 9.8 °C 1020.5 hPa SE 3.9 km/h 5.6 km/h 66% 0.0 mm CLR
05:24 16.2 °C 9.8 °C 1020.5 hPa SSE 3.9 km/h 7.6 km/h 66% 0.0 mm CLR
05:29 16.2 °C 9.6 °C 1020.5 hPa SSE 4.7 km/h 7.4 km/h 65% 0.0 mm CLR
05:34 16.1 °C 9.5 °C 1020.5 hPa South 4.7 km/h 6.4 km/h 65% 0.0 mm CLR
05:39 16.1 °C 9.5 °C 1020.5 hPa SSE 3.9 km/h 7.4 km/h 65% 0.0 mm CLR
05:44 16.1 °C 9.5 °C 1020.5 hPa SSE 3.9 km/h 5.6 km/h 65% 0.0 mm CLR
05:49 16.0 °C 9.4 °C 1020.5 hPa SSE 3.9 km/h 5.6 km/h 65% 0.0 mm CLR
05:54 16.0 °C 9.4 °C 1020.5 hPa SSE 3.9 km/h 3.9 km/h 65% 0.0 mm CLR
05:59 15.9 °C 9.3 °C 1020.5 hPa SSE 2.9 km/h   65% 0.0 mm CLR
06:04 15.9 °C 9.6 °C 1020.6 hPa SSE 2.9 km/h 5.0 km/h 66% 0.0 mm CLR
06:09 15.9 °C 9.6 °C 1020.6 hPa SSE 3.2 km/h 7.4 km/h 66% 0.0 mm CLR
06:14 15.9 °C 9.6 °C 1020.6 hPa SSE 3.2 km/h 7.4 km/h 66% 0.0 mm CLR
06:19 15.8 °C 9.4 °C 1020.5 hPa SSE 5.8 km/h 5.6 km/h 66% 0.0 mm CLR
06:24 15.8 °C 9.4 °C 1020.5 hPa South 5.8 km/h 9.3 km/h 66% 0.0 mm CLR
06:29 15.7 °C 9.1 °C 1020.5 hPa SSW 5.0 km/h 9.3 km/h 65% 0.0 mm CLR
06:34 15.7 °C 9.1 °C 1020.7 hPa SSW 5.0 km/h 9.3 km/h 65% 0.0 mm CLR
06:39 15.7 °C 9.1 °C 1020.7 hPa SSW 6.4 km/h 7.4 km/h 65% 0.0 mm CLR
06:44 15.8 °C 9.0 °C 1020.7 hPa SSW 6.4 km/h 9.3 km/h 64% 0.0 mm CLR
06:49 15.8 °C 9.0 °C 1020.7 hPa SW 5.8 km/h 7.4 km/h 64% 0.0 mm CLR
06:54 15.9 °C 9.1 °C 1020.7 hPa SSW 5.8 km/h 8.7 km/h 64% 0.0 mm CLR
06:59 15.9 °C 8.8 °C 1020.7 hPa SSW 5.8 km/h 9.3 km/h 63% 0.0 mm CLR
07:04 16.0 °C 8.9 °C 1020.8 hPa SW 5.8 km/h 9.3 km/h 63% 0.0 mm CLR
07:09 16.0 °C 9.2 °C 1020.8 hPa SW 6.4 km/h 6.4 km/h 64% 0.0 mm CLR
07:14 16.1 °C 9.3 °C 1020.8 hPa SW 6.4 km/h 11.1 km/h 64% 0.0 mm CLR
07:19 16.1 °C 9.1 °C 1021.0 hPa SW 6.9 km/h 13.0 km/h 63% 0.0 mm CLR
07:24 16.1 °C 9.1 °C 1021.0 hPa SW 6.9 km/h 11.1 km/h 63% 0.0 mm CLR
07:29 16.2 °C 9.2 °C 1021.0 hPa SW 7.6 km/h 11.1 km/h 63% 0.0 mm CLR
07:34 16.3 °C 9.2 °C 1021.0 hPa SSW 7.6 km/h 9.3 km/h 63% 0.0 mm CLR
07:39 16.4 °C 9.1 °C 1021.0 hPa West 5.8 km/h 8.7 km/h 62% 0.0 mm CLR
07:44 16.5 °C 9.2 °C 1021.0 hPa SW 5.8 km/h 7.4 km/h 62% 0.0 mm CLR
07:49 16.6 °C 9.3 °C 1021.0 hPa SW 5.8 km/h 11.1 km/h 62% 0.0 mm CLR
07:54 16.7 °C 9.4 °C 1021.0 hPa SW 5.8 km/h 7.4 km/h 62% 0.0 mm CLR
07:59 16.7 °C 9.4 °C 1021.0 hPa SW 5.8 km/h 11.1 km/h 62% 0.0 mm CLR
08:04 16.8 °C 9.2 °C 1021.1 hPa SW 5.8 km/h 7.4 km/h 61% 0.0 mm CLR
08:09 16.8 °C 9.5 °C 1021.1 hPa WSW 6.9 km/h 11.1 km/h 62% 0.0 mm CLR
08:14 16.8 °C 9.5 °C 1021.1 hPa WSW 6.9 km/h 7.4 km/h 62% 0.0 mm CLR
08:19 17.0 °C 9.4 °C 1021.4 hPa SSW 5.8 km/h 9.5 km/h 61% 0.0 mm CLR
08:24 17.2 °C 9.4 °C 1021.4 hPa SSW 5.8 km/h 10.0 km/h 60% 0.0 mm CLR
08:29 17.2 °C 9.4 °C 1021.4 hPa WSW 6.4 km/h 7.4 km/h 60% 0.0 mm CLR
08:34 17.3 °C 9.2 °C 1021.3 hPa SW 6.4 km/h 7.6 km/h 59% 0.0 mm CLR
08:39 17.4 °C 9.3 °C 1021.3 hPa SSW 6.4 km/h 9.3 km/h 59% 0.0 mm CLR
08:44 17.5 °C 9.4 °C 1021.3 hPa WSW 6.4 km/h 11.1 km/h 59% 0.0 mm CLR
08:49 17.6 °C 9.5 °C 1021.3 hPa WSW 5.8 km/h 10.3 km/h 59% 0.0 mm CLR
08:54 17.8 °C 9.4 °C 1021.3 hPa WSW 5.8 km/h 9.3 km/h 58% 0.0 mm CLR
08:59 17.9 °C 9.3 °C 1021.3 hPa West 6.4 km/h 11.1 km/h 57% 0.0 mm CLR
09:04 17.9 °C 9.3 °C 1021.3 hPa WSW 6.4 km/h 9.3 km/h 57% 0.0 mm CLR
09:09 18.1 °C 9.2 °C 1021.3 hPa SW 6.9 km/h 7.4 km/h 56% 0.0 mm CLR
09:14 18.3 °C 9.1 °C 1021.3 hPa SW 6.9 km/h 7.4 km/h 55% 0.0 mm CLR
09:19 18.6 °C 9.4 °C 1021.3 hPa SW 5.8 km/h 8.7 km/h 55% 0.0 mm CLR
09:24 18.7 °C 9.2 °C 1021.3 hPa SW 5.8 km/h 11.1 km/h 54% 0.0 mm CLR
09:29 18.8 °C 9.3 °C 1021.3 hPa WSW 6.9 km/h 9.5 km/h 54% 0.0 mm CLR
09:34 18.9 °C 9.4 °C 1021.3 hPa SSW 6.9 km/h 10.0 km/h 54% 0.0 mm CLR
09:39 19.1 °C 9.3 °C 1021.3 hPa SW 6.4 km/h 9.3 km/h 53% 0.0 mm CLR
09:44 19.3 °C 9.5 °C 1021.3 hPa SSW 6.4 km/h 7.4 km/h 53% 0.0 mm CLR
09:49 19.6 °C 9.8 °C 1021.3 hPa South 6.4 km/h 11.1 km/h 53% 0.0 mm CLR
09:54 19.6 °C 9.8 °C 1021.3 hPa South 6.4 km/h 11.1 km/h 53% 0.0 mm CLR
09:59 19.7 °C 9.8 °C 1021.3 hPa SSE 7.6 km/h 7.4 km/h 53% 0.0 mm CLR
10:04 20.0 °C 9.8 °C 1021.2 hPa NNW 7.6 km/h 5.8 km/h 52% 0.0 mm CLR
10:09 20.2 °C 9.7 °C 1021.2 hPa WSW 4.7 km/h 9.3 km/h 51% 0.0 mm CLR
10:14 20.4 °C 9.3 °C 1021.2 hPa West 4.7 km/h 9.3 km/h 49% 0.0 mm CLR
10:19 20.6 °C 9.2 °C 1021.2 hPa WNW 5.0 km/h 9.3 km/h 48% 0.0 mm CLR
10:24 20.9 °C 9.2 °C 1021.2 hPa NNW 5.0 km/h 5.6 km/h 47% 0.0 mm CLR
10:29 21.3 °C 9.2 °C 1021.2 hPa West 3.9 km/h 11.1 km/h 46% 0.0 mm CLR
10:34 21.4 °C 8.9 °C 1021.1 hPa East 3.9 km/h 7.4 km/h 45% 0.0 mm CLR
10:39 21.8 °C 9.0 °C 1021.1 hPa East 4.7 km/h 4.7 km/h 44% 0.0 mm CLR
10:44 22.1 °C 8.9 °C 1021.1 hPa ENE 4.7 km/h 6.9 km/h 43% 0.0 mm CLR
10:49 22.3 °C 7.3 °C 1021.0 hPa ENE 3.9 km/h 9.3 km/h 38% 0.0 mm CLR
10:54 22.5 °C 8.2 °C 1021.0 hPa ESE 3.9 km/h 7.4 km/h 40% 0.0 mm CLR
10:59 22.6 °C 6.3 °C 1021.0 hPa South 5.8 km/h 7.4 km/h 35% 0.0 mm CLR
11:04 22.7 °C 6.4 °C 1021.1 hPa ENE 5.8 km/h 11.1 km/h 35% 0.0 mm CLR
11:09 22.9 °C 5.8 °C 1021.1 hPa East 5.8 km/h 9.3 km/h 33% 0.0 mm CLR
11:14 23.2 °C 6.4 °C 1021.1 hPa NE 5.8 km/h 7.4 km/h 34% 0.0 mm CLR
11:19 23.3 °C 6.1 °C 1021.1 hPa NNW 5.0 km/h 7.4 km/h 33% 0.0 mm CLR
11:24 23.4 °C 6.2 °C 1021.1 hPa NE 5.0 km/h 7.6 km/h 33% 0.0 mm CLR
11:29 23.5 °C 6.3 °C 1021.1 hPa ENE 6.4 km/h 11.1 km/h 33% 0.0 mm CLR
11:34 23.6 °C 6.8 °C 1021.1 hPa SE 6.4 km/h 9.3 km/h 34% 0.0 mm CLR
11:39 23.8 °C 6.6 °C 1021.1 hPa NW 4.7 km/h 7.4 km/h 33% 0.0 mm CLR
11:44 24.2 °C 6.4 °C 1021.1 hPa ENE 4.7 km/h 11.1 km/h 32% 0.0 mm CLR
11:49 24.5 °C 5.8 °C 1021.0 hPa NE 3.9 km/h 9.3 km/h 30% 0.0 mm CLR
11:54 24.3 °C 6.1 °C 1021.0 hPa NE 3.9 km/h 14.8 km/h 31% 0.0 mm CLR
11:59 24.3 °C 6.1 °C 1021.0 hPa NNE 9.5 km/h 12.2 km/h 31% 0.0 mm CLR
12:04 24.3 °C 6.1 °C 1020.9 hPa NE 9.5 km/h 9.3 km/h 31% 0.0 mm CLR
12:09 24.4 °C 5.7 °C 1020.9 hPa East 8.7 km/h 14.8 km/h 30% 0.0 mm CLR
12:14 24.4 °C 5.2 °C 1020.9 hPa ENE 8.7 km/h 14.8 km/h 29% 0.0 mm CLR
12:19 24.6 °C 6.3 °C 1020.7 hPa NE 9.5 km/h 7.4 km/h 31% 0.0 mm CLR
12:24 24.8 °C 6.1 °C 1020.7 hPa East 9.5 km/h 11.1 km/h 30% 0.0 mm CLR
12:29 24.9 °C 6.1 °C 1020.7 hPa ESE 7.6 km/h 13.0 km/h 30% 0.0 mm CLR
12:34 24.9 °C 6.1 °C 1020.7 hPa NE 7.6 km/h 11.1 km/h 30% 0.0 mm CLR
12:39 24.8 °C 6.1 °C 1020.7 hPa WNW 10.0 km/h 9.3 km/h 30% 0.0 mm CLR
12:44 24.9 °C 6.1 °C 1020.7 hPa ENE 10.0 km/h 11.1 km/h 30% 0.0 mm CLR
12:49 25.1 °C 5.3 °C 1020.6 hPa East 6.9 km/h 18.5 km/h 28% 0.0 mm CLR
12:54 25.2 °C 5.4 °C 1020.6 hPa ENE 6.9 km/h 22.2 km/h 28% 0.0 mm CLR
12:59 25.1 °C 5.8 °C 1020.6 hPa ESE 10.0 km/h 13.0 km/h 29% 0.0 mm CLR
13:04 25.1 °C 5.3 °C 1020.4 hPa NW 10.0 km/h 14.8 km/h 28% 0.0 mm CLR
13:09 25.3 °C 5.4 °C 1020.4 hPa East 8.7 km/h 13.0 km/h 28% 0.0 mm CLR
13:14 25.3 °C 5.4 °C 1020.4 hPa NNE 8.7 km/h 23.3 km/h 28% 0.0 mm CLR
13:19 25.3 °C 5.4 °C 1020.4 hPa ENE 13.0 km/h 13.0 km/h 28% 0.0 mm CLR
13:24 25.5 °C 5.7 °C 1020.4 hPa NE 13.0 km/h 18.5 km/h 28% 0.0 mm CLR
13:29 25.6 °C 5.7 °C 1020.4 hPa ENE 10.0 km/h 22.2 km/h 28% 0.0 mm CLR
13:34 25.6 °C 5.7 °C 1020.2 hPa NE 10.0 km/h 18.5 km/h 28% 0.0 mm CLR
13:39 25.8 °C 5.4 °C 1020.2 hPa East 10.3 km/h 11.9 km/h 27% 0.0 mm CLR
13:44 25.7 °C 4.7 °C 1020.2 hPa ESE 10.3 km/h 27.8 km/h 26% 0.0 mm CLR
13:49 25.8 °C 5.4 °C 1020.1 hPa NE 11.1 km/h 20.4 km/h 27% 0.0 mm CLR
13:54 25.9 °C 4.3 °C 1020.1 hPa East 11.1 km/h 16.7 km/h 25% 0.0 mm CLR
13:59 26.1 °C 5.1 °C 1020.1 hPa NE 10.0 km/h 9.3 km/h 26% 0.0 mm CLR
14:04 26.2 °C 4.6 °C 1019.9 hPa NNE 10.0 km/h 16.7 km/h 25% 0.0 mm CLR
14:09 26.0 °C 5.0 °C 1019.9 hPa NNE 9.5 km/h 16.7 km/h 26% 0.0 mm CLR
14:14 26.0 °C 5.0 °C 1019.9 hPa ENE 9.5 km/h 27.8 km/h 26% 0.0 mm CLR
14:19 25.9 °C 4.9 °C 1019.9 hPa NE 14.0 km/h 20.4 km/h 26% 0.0 mm CLR
14:24 26.1 °C 5.6 °C 1019.9 hPa NNE 14.0 km/h 14.8 km/h 27% 0.0 mm CLR
14:29 26.4 °C 5.9 °C 1019.9 hPa ENE 11.9 km/h 22.2 km/h 27% 0.0 mm CLR
14:34 26.1 °C 5.6 °C 1019.7 hPa ENE 11.9 km/h 25.9 km/h 27% 0.0 mm CLR
14:39 26.2 °C 6.2 °C 1019.7 hPa ENE 13.7 km/h 16.7 km/h 28% 0.0 mm CLR
14:44 26.3 °C 5.8 °C 1019.7 hPa ENE 13.7 km/h 13.0 km/h 27% 0.0 mm CLR
14:49 26.4 °C 5.9 °C 1019.5 hPa ENE 12.2 km/h 18.5 km/h 27% 0.0 mm CLR
14:54 26.6 °C 6.1 °C 1019.5 hPa ENE 12.2 km/h 16.7 km/h 27% 0.0 mm CLR
14:59 26.7 °C 6.2 °C 1019.5 hPa ENE 11.1 km/h 22.2 km/h 27% 0.0 mm CLR
15:04 26.6 °C 5.5 °C 1019.4 hPa NNE 11.1 km/h 20.1 km/h 26% 0.0 mm CLR
15:09 26.3 °C 5.3 °C 1019.4 hPa NNE 13.7 km/h 14.8 km/h 26% 0.0 mm CLR
15:14 26.2 °C 5.7 °C 1019.4 hPa NW 13.7 km/h 25.9 km/h 27% 0.0 mm CLR
15:19 26.6 °C 6.1 °C 1019.2 hPa East 11.1 km/h 20.9 km/h 27% 0.0 mm CLR
15:24 26.6 °C 6.1 °C 1019.2 hPa East 11.1 km/h 16.1 km/h 27% 0.0 mm CLR
15:29 26.7 °C 5.6 °C 1019.2 hPa SE 11.9 km/h 20.1 km/h 26% 0.0 mm CLR
15:34 26.4 °C 4.8 °C 1019.1 hPa ESE 11.9 km/h 25.9 km/h 25% 0.0 mm CLR
15:39 26.6 °C 5.5 °C 1019.1 hPa NNW 13.7 km/h 18.5 km/h 26% 0.0 mm CLR
15:44 26.8 °C 4.6 °C 1019.1 hPa NE 13.7 km/h 20.4 km/h 24% 0.0 mm CLR
15:49 26.7 °C 4.4 °C 1019.0 hPa ESE 13.7 km/h 20.4 km/h 24% 0.0 mm CLR
15:54 26.7 °C 4.4 °C 1019.0 hPa East 13.7 km/h 20.4 km/h 24% 0.0 mm CLR
15:59 26.7 °C 3.8 °C 1019.0 hPa ENE 12.2 km/h 16.7 km/h 23% 0.0 mm CLR
16:04 26.8 °C 3.9 °C 1018.8 hPa East 12.2 km/h 27.8 km/h 23% 0.0 mm CLR
16:09 26.8 °C 3.9 °C 1018.8 hPa ENE 12.2 km/h 27.8 km/h 23% 0.0 mm CLR
16:14 26.8 °C 4.6 °C 1018.8 hPa NE 12.2 km/h 18.5 km/h 24% 0.0 mm CLR
16:19 26.9 °C 4.0 °C 1018.7 hPa ESE 13.0 km/h 20.4 km/h 23% 0.0 mm CLR
16:24 26.9 °C 4.0 °C 1018.7 hPa East 13.0 km/h 20.4 km/h 23% 0.0 mm CLR
16:29 26.9 °C 4.0 °C 1018.7 hPa North 13.0 km/h 16.4 km/h 23% 0.0 mm CLR
16:34 26.9 °C 4.6 °C 1018.6 hPa ENE 13.0 km/h 21.7 km/h 24% 0.0 mm CLR
16:39 26.9 °C 4.0 °C 1018.6 hPa East 12.2 km/h 24.1 km/h 23% 0.0 mm CLR
16:44 26.9 °C 4.0 °C 1018.6 hPa NNE 12.2 km/h 27.8 km/h 23% 0.0 mm CLR
16:49 26.8 °C 4.6 °C 1018.5 hPa ESE 13.0 km/h 22.2 km/h 24% 0.0 mm CLR
16:54 26.7 °C 4.4 °C 1018.5 hPa NE 13.0 km/h 20.4 km/h 24% 0.0 mm CLR
16:59 26.7 °C 3.2 °C 1018.5 hPa NE 13.7 km/h 24.1 km/h 22% 0.0 mm CLR
17:04 26.5 °C 3.7 °C 1018.4 hPa NE 13.7 km/h 29.6 km/h 23% 0.0 mm CLR
17:09 26.6 °C 4.4 °C 1018.4 hPa East 16.1 km/h 24.1 km/h 24% 0.0 mm CLR
17:14 26.7 °C 3.8 °C 1018.4 hPa NNE 16.1 km/h 20.4 km/h 23% 0.0 mm CLR
17:19 26.6 °C 3.8 °C 1018.3 hPa NE 15.6 km/h 24.1 km/h 23% 0.0 mm CLR
17:24 26.5 °C 3.1 °C 1018.3 hPa NNE 15.6 km/h 25.9 km/h 22% 0.0 mm CLR
17:29 26.5 °C 3.7 °C 1018.3 hPa NNE 14.8 km/h 29.6 km/h 23% 0.0 mm CLR
17:34 26.4 °C 3.6 °C 1018.3 hPa NE 14.8 km/h 29.6 km/h 23% 0.0 mm CLR
17:39 26.3 °C 3.5 °C 1018.3 hPa NE 19.0 km/h 25.9 km/h 23% 0.0 mm CLR
17:44 26.3 °C 3.5 °C 1018.3 hPa NE 19.0 km/h 22.0 km/h 23% 0.0 mm CLR
17:49 26.3 °C 3.5 °C 1018.2 hPa NE 16.1 km/h 25.9 km/h 23% 0.0 mm CLR
17:54 26.5 °C 4.3 °C 1018.2 hPa ENE 16.1 km/h 18.5 km/h 24% 0.0 mm CLR
17:59 26.5 °C 3.7 °C 1018.2 hPa NE 14.8 km/h 25.9 km/h 23% 0.0 mm CLR
18:04 26.4 °C 3.6 °C 1018.2 hPa ENE 14.8 km/h 25.9 km/h 23% 0.0 mm CLR
18:09 26.3 °C 3.5 °C 1018.2 hPa East 16.1 km/h 27.8 km/h 23% 0.0 mm CLR
18:14 26.2 °C 3.4 °C 1018.2 hPa NE 16.1 km/h 19.0 km/h 23% 0.0 mm CLR
18:19 26.2 °C 3.4 °C 1018.1 hPa NE 16.1 km/h 24.1 km/h 23% 0.0 mm CLR
18:24 26.2 °C 2.8 °C 1018.1 hPa NE 16.1 km/h 24.1 km/h 22% 0.0 mm CLR
18:29 26.3 °C 3.5 °C 1018.1 hPa NNE 13.7 km/h 22.2 km/h 23% 0.0 mm CLR
18:34 26.1 °C 3.3 °C 1018.0 hPa East 13.7 km/h 25.9 km/h 23% 0.0 mm CLR
18:39 26.2 °C 3.4 °C 1018.0 hPa NE 15.6 km/h 14.8 km/h 23% 0.0 mm CLR
18:44 26.1 °C 3.9 °C 1018.0 hPa NE 15.6 km/h 24.1 km/h 24% 0.0 mm CLR
18:49 25.9 °C 3.8 °C 1017.9 hPa NNE 16.1 km/h 18.5 km/h 24% 0.0 mm CLR
18:54 26.0 °C 3.8 °C 1017.9 hPa NE 16.1 km/h 25.9 km/h 24% 0.0 mm CLR
18:59 25.8 °C 4.3 °C 1017.9 hPa North 14.8 km/h 25.9 km/h 25% 0.0 mm CLR
19:04 25.8 °C 3.7 °C 1017.8 hPa ESE 14.8 km/h 25.9 km/h 24% 0.0 mm CLR
19:09 25.9 °C 3.8 °C 1017.8 hPa NE 14.0 km/h 20.4 km/h 24% 0.0 mm CLR
19:14 25.7 °C 3.6 °C 1017.8 hPa ENE 14.0 km/h 25.9 km/h 24% 0.0 mm CLR
19:19 25.5 °C 3.4 °C 1017.9 hPa East 15.6 km/h 22.2 km/h 24% 0.0 mm CLR
19:24 25.4 °C 3.9 °C 1017.9 hPa ENE 15.6 km/h 24.1 km/h 25% 0.0 mm CLR
19:29 25.4 °C 4.5 °C 1017.9 hPa East 15.6 km/h 15.6 km/h 26% 0.0 mm CLR
19:34 25.3 °C 4.4 °C 1017.9 hPa NE 15.6 km/h 24.1 km/h 26% 0.0 mm CLR
19:39 25.2 °C 4.3 °C 1017.9 hPa NE 14.8 km/h 18.5 km/h 26% 0.0 mm CLR
19:44 25.2 °C 4.3 °C 1017.9 hPa NE 14.8 km/h 20.4 km/h 26% 0.0 mm CLR
19:49 25.2 °C 4.3 °C 1018.1 hPa NE 12.2 km/h 22.5 km/h 26% 0.0 mm CLR
19:54 25.1 °C 4.2 °C 1018.1 hPa NNE 12.2 km/h 16.7 km/h 26% 0.0 mm CLR
19:59 25.0 °C 4.7 °C 1018.1 hPa NE 12.2 km/h 16.7 km/h 27% 0.0 mm CLR
20:04 24.8 °C 4.5 °C 1018.2 hPa ENE 12.2 km/h 16.7 km/h 27% 0.0 mm CLR
20:09 24.7 °C 4.4 °C 1018.2 hPa NNE 12.2 km/h 14.8 km/h 27% 0.0 mm CLR
20:14 24.6 °C 4.9 °C 1018.2 hPa NE 12.2 km/h 16.7 km/h 28% 0.0 mm CLR
20:19 24.5 °C 4.8 °C 1018.2 hPa ENE 10.3 km/h 22.2 km/h 28% 0.0 mm CLR
20:24 24.4 °C 4.7 °C 1018.2 hPa ENE 10.3 km/h 24.1 km/h 28% 0.0 mm CLR
20:29 24.3 °C 4.6 °C 1018.2 hPa ENE 10.3 km/h 13.0 km/h 28% 0.0 mm CLR
20:34 24.2 °C 5.1 °C 1018.3 hPa ENE 10.3 km/h 20.4 km/h 29% 0.0 mm CLR
20:39 24.0 °C 4.8 °C 1018.3 hPa NE 13.0 km/h 20.4 km/h 29% 0.0 mm CLR
20:44 23.9 °C 5.3 °C 1018.3 hPa ENE 13.0 km/h 14.8 km/h 30% 0.0 mm CLR
20:49 23.9 °C 5.3 °C 1018.5 hPa NE 10.0 km/h 18.5 km/h 30% 0.0 mm CLR
20:54 23.7 °C 5.1 °C 1018.5 hPa NE 10.0 km/h 20.4 km/h 30% 0.0 mm CLR
20:59 23.6 °C 5.5 °C 1018.5 hPa ENE 13.0 km/h 18.5 km/h 31% 0.0 mm CLR
21:04 23.4 °C 5.3 °C 1018.5 hPa ENE 13.0 km/h 14.8 km/h 31% 0.0 mm CLR
21:09 23.3 °C 5.7 °C 1018.5 hPa NNE 10.3 km/h 11.1 km/h 32% 0.0 mm CLR
21:14 23.2 °C 5.6 °C 1018.5 hPa NE 10.3 km/h 14.8 km/h 32% 0.0 mm CLR
21:19 23.0 °C 5.8 °C 1018.5 hPa NE 10.0 km/h 14.8 km/h 33% 0.0 mm CLR
21:24 22.8 °C 6.1 °C 1018.5 hPa NNE 10.0 km/h 13.0 km/h 34% 0.0 mm CLR
21:29 22.6 °C 6.3 °C 1018.5 hPa NE 8.4 km/h 11.1 km/h 35% 0.0 mm CLR
21:34 22.4 °C 6.2 °C 1018.5 hPa NNE 8.4 km/h 13.0 km/h 35% 0.0 mm CLR
21:39 22.4 °C 6.6 °C 1018.5 hPa NNE 8.4 km/h 11.1 km/h 36% 0.0 mm CLR
21:44 22.3 °C 6.9 °C 1018.5 hPa ENE 8.4 km/h 12.2 km/h 37% 0.0 mm CLR
21:49 22.1 °C 7.1 °C 1018.7 hPa NE 6.9 km/h 13.0 km/h 38% 0.0 mm CLR
21:54 21.9 °C 7.3 °C 1018.7 hPa ENE 6.9 km/h 7.4 km/h 39% 0.0 mm CLR
21:59 21.8 °C 7.6 °C 1018.7 hPa NE 6.9 km/h 9.3 km/h 40% 0.0 mm CLR
22:04 21.7 °C 7.5 °C 1018.7 hPa NE 6.9 km/h 11.1 km/h 40% 0.0 mm CLR
22:09 21.6 °C 7.8 °C 1018.7 hPa NE 6.9 km/h 10.3 km/h 41% 0.0 mm CLR
22:14 21.4 °C 7.9 °C 1018.7 hPa NE 6.9 km/h 11.1 km/h 42% 0.0 mm CLR
22:19 21.3 °C 7.9 °C 1018.9 hPa NE 8.4 km/h 11.1 km/h 42% 0.0 mm CLR
22:24 21.2 °C 8.1 °C 1018.9 hPa NE 8.4 km/h 13.0 km/h 43% 0.0 mm CLR
22:29 21.2 °C 8.1 °C 1018.9 hPa NE 8.7 km/h 13.0 km/h 43% 0.0 mm CLR
22:34 21.2 °C 8.1 °C 1019.0 hPa East 8.7 km/h 9.5 km/h 43% 0.0 mm CLR
22:39 21.1 °C 8.0 °C 1019.0 hPa NNE 6.9 km/h 9.5 km/h 43% 0.0 mm CLR
22:44 21.1 °C 8.0 °C 1019.0 hPa NE 6.9 km/h 11.1 km/h 43% 0.0 mm CLR
22:49 21.1 °C 8.0 °C 1019.2 hPa North 7.6 km/h 11.1 km/h 43% 0.0 mm CLR
22:54 21.0 °C 7.9 °C 1019.2 hPa NNE 7.6 km/h 9.3 km/h 43% 0.0 mm CLR
22:59 20.9 °C 7.8 °C 1019.2 hPa NE 6.9 km/h 8.7 km/h 43% 0.0 mm CLR
23:04 20.9 °C 7.8 °C 1019.2 hPa NE 6.9 km/h 11.1 km/h 43% 0.0 mm CLR
23:09 20.9 °C 8.2 °C 1019.2 hPa NE 7.6 km/h 11.1 km/h 44% 0.0 mm CLR
23:14 20.8 °C 8.1 °C 1019.2 hPa ENE 7.6 km/h 13.0 km/h 44% 0.0 mm CLR
23:19 20.9 °C 8.2 °C 1019.4 hPa NE 8.7 km/h 14.8 km/h 44% 0.0 mm CLR
23:24 20.9 °C 8.2 °C 1019.4 hPa NE 8.7 km/h 11.1 km/h 44% 0.0 mm CLR
23:29 20.8 °C 8.4 °C 1019.4 hPa NE 9.5 km/h 13.0 km/h 45% 0.0 mm CLR
23:34 20.6 °C 8.2 °C 1019.5 hPa NE 9.5 km/h 11.1 km/h 45% 0.0 mm CLR
23:39 20.6 °C 8.2 °C 1019.5 hPa ENE 8.7 km/h 11.9 km/h 45% 0.0 mm CLR
23:44 20.6 °C 8.2 °C 1019.5 hPa East 8.7 km/h 9.3 km/h 45% 0.0 mm CLR
23:49 20.6 °C 8.6 °C 1019.6 hPa ENE 7.6 km/h 9.3 km/h 46% 0.0 mm CLR
23:54 20.7 °C 8.7 °C 1019.6 hPa ESE 7.6 km/h 13.0 km/h 46% 0.0 mm CLR
23:59 20.7 °C 8.7 °C 1019.6 hPa NE 6.9 km/h 9.3 km/h 46% 0.0 mm CLR
Murcia-Puente Tocinos, España
Compliments of Weather Underground - 2.75 mb

La estación de MeteoMurcia.com, publica sus datos en los siguientes proyectos:

Weather Underground PWS IMURCIAP2 Meteoclimatic www.awekas.at

W3Counter
Web Analytics